World > North America > United States > Texas > Belton   City of Belton, Texas

Belton, TX Hourly Weather Updates

Feedback E-mail the Weather

Quick Clicks

Belton, TX Weather Maps

°F °C°F °C
Belton Weather Map
UTC Time: 5/29/2024, 15:55
Your Time:

Belton, TX Regional Weather

Expires:202405291600;;086602
ASUS44 KFWD 291515
RWRTX 
NORTH TEXAS HOURLY WEATHER ROUNDUP
NATIONAL WEATHER SERVICE FORT WORTH TX
1000 AM CDT WED MAY 29 2024

NOTE: "FAIR" INDICATES FEW OR NO CLOUDS BELOW 12,000 FEET WITH NO
SIGNIFICANT WEATHER AND/OR OBSTRUCTIONS TO VISIBILITY.


TXZ143>147-156>162-174-175-291600-
CENTRAL TEXAS
  
CITY           SKY/WX    TMP DP  RH WIND       PRES   REMARKS
WACO           PTSUNNY   75  67  76 CALM      30.10F                  
WACO-TSTC      PTSUNNY   73  68  83 N7        30.11F                  
WACO-MCGREGOR    N/A     75  67  76 NE6       30.11F                  
HILLSBORO      FAIR      79  70  75 SW3       30.11S                  
CORSICANA      PTSUNNY   75  66  73 N6        30.12S                  
MEXIA          FAIR      73  69  88 MISG      30.11R                  
HEARNE         FAIR      74  68  79 E3        30.10S                  
CAMERON        FAIR      74  68  81 E3        30.10S                  
KILLEEN        FAIR      76  68  74 E6        30.12R                  
KILLEEN-SKYLRK PTSUNNY   75  68  78 N5        30.12S                  
FORT CAVAZOS   PTSUNNY   73  68  83 NE3         N/A                   
GATESVILLE     FAIR      73  70  88 VRB6      30.12F                  
HAMILTON       PTSUNNY   76  70  82 E3        30.12F                  
$$


SKY/WX - Weather  TMP - Temperature  DP - Dew Point  RH - Humidity
WIND - Wind Direction/Speed PRES - Barometric Pressure VSB - Visibility
WCI - Wind Chill Index E13G22 Wind - East Wind 13 mph/Gusts of 22 mph

Trending Headlines

Trending Entertainment Headlines

Belton Radar Loop

Use the map search tool if you want to place a location marker on the radar map...

Belton Quick Facts

National Two Day Weather Forecast


E-mail the Belton Weather Forecast

Voice your opinion or tell us about page issues...